Time,TemperatureF,DewpointF,PressureIn,WindDirection,WindDirectionDegrees,WindSpeedMPH,WindSpeedGustMPH,Humidity,HourlyPrecipIn,Conditions,Clouds,dailyrainin,SolarRadiationWatts/m^2,SoftwareType,DateUTC
2013-05-08 00:00:00,53.7,47.3,29.95,SSE,150,0.0,2.0,79,0.00,,---,0.00,0.00,VWS V14.01,2013-05-08 05:00:00,
2013-05-08 00:01:00,53.7,47.3,29.95,SSE,150,0.0,1.0,79,0.00,,---,0.00,0.00,VWS V14.01,2013-05-08 05:01:00,
2013-05-08 00:06:00,53.2,47.2,29.95,SSE,150,0.0,1.0,80,0.00,,---,0.00,0.00,VWS V14.01,2013-05-08 05:06:00,
2013-05-08 00:11:00,52.9,46.9,29.95,SSE,150,0.0,1.0,80,0.00,,---,0.00,0.00,VWS V14.01,2013-05-08 05:11:00,
2013-05-08 00:16:00,52.6,46.6,29.95,SSE,150,0.0,1.0,80,0.00,,---,0.00,0.00,VWS V14.01,2013-05-08 05:16:00,
2013-05-08 00:21:00,52.4,46.4,29.95,SSE,150,0.0,1.0,80,0.00,,---,0.00,0.00,VWS V14.01,2013-05-08 05:21:00,
2013-05-08 00:26:00,52.4,46.1,29.95,SSE,150,0.0,1.0,79,0.00,,---,0.00,0.00,VWS V14.01,2013-05-08 05:26:00,
2013-05-08 00:31:00,52.3,46.0,29.95,SSE,150,0.0,1.0,79,0.00,,---,0.00,0.00,VWS V14.01,2013-05-08 05:31:00,
2013-05-08 00:36:00,52.3,46.0,29.95,SSE,150,0.0,1.0,79,0.00,,---,0.00,0.00,VWS V14.01,2013-05-08 05:36:00,
2013-05-08 00:41:00,52.2,46.2,29.95,SSE,150,0.0,1.0,80,0.00,,---,0.00,0.00,VWS V14.01,2013-05-08 05:41:00,
2013-05-08 00:46:00,52.1,46.1,29.95,SSE,150,1.0,1.0,80,0.00,,---,0.00,0.00,VWS V14.01,2013-05-08 05:46:00,
2013-05-08 00:51:00,51.8,45.8,29.95,SSE,150,0.0,2.0,80,0.00,,---,0.00,0.00,VWS V14.01,2013-05-08 05:51:00,
2013-05-08 00:56:00,51.7,46.1,29.95,SSE,150,0.0,2.0,81,0.00,,---,0.00,0.00,VWS V14.01,2013-05-08 05:56:00,
2013-05-08 01:00:00,51.6,46.0,29.95,SSE,150,0.0,2.0,81,0.00,,---,0.00,0.00,VWS V14.01,2013-05-08 06:00:00,
2013-05-08 01:01:00,51.6,46.0,29.95,SSE,150,0.0,0.0,81,0.00,,---,0.00,0.00,VWS V14.01,2013-05-08 06:01:00,
2013-05-08 01:06:00,51.5,46.2,29.95,SSE,150,0.0,0.0,82,0.00,,---,0.00,0.00,VWS V14.01,2013-05-08 06:06:00,
2013-05-08 01:11:00,51.4,46.1,29.95,SSE,150,0.0,0.0,82,0.00,,---,0.00,0.00,VWS V14.01,2013-05-08 06:11:00,
2013-05-08 01:16:00,51.3,46.3,29.95,SSE,150,0.0,0.0,83,0.00,,---,0.00,0.00,VWS V14.01,2013-05-08 06:16:00,
2013-05-08 01:21:00,51.2,46.2,29.95,SSE,150,0.0,0.0,83,0.00,,---,0.00,0.00,VWS V14.01,2013-05-08 06:21:00,
2013-05-08 01:26:00,51.0,46.0,29.95,SSE,150,0.0,0.0,83,0.00,,---,0.00,0.00,VWS V14.01,2013-05-08 06:26:00,
2013-05-08 01:31:00,51.0,46.0,29.95,SSE,150,0.0,0.0,83,0.00,,---,0.00,0.00,VWS V14.01,2013-05-08 06:31:00,
2013-05-08 01:36:00,50.8,46.2,29.95,SSE,150,0.0,0.0,84,0.00,,---,0.00,0.00,VWS V14.01,2013-05-08 06:36:00,
2013-05-08 01:41:00,50.8,46.2,29.95,SSE,150,0.0,0.0,84,0.00,,---,0.00,0.00,VWS V14.01,2013-05-08 06:41:00,
2013-05-08 01:46:00,50.6,46.0,29.95,SSE,150,0.0,0.0,84,0.00,,---,0.00,0.00,VWS V14.01,2013-05-08 06:46:00,
2013-05-08 01:51:00,50.5,45.8,29.95,SSE,150,0.0,0.0,84,0.00,,---,0.00,0.00,VWS V14.01,2013-05-08 06:51:00,
2013-05-08 01:56:00,50.5,46.2,29.95,SSE,150,0.0,0.0,85,0.00,,---,0.00,0.00,VWS V14.01,2013-05-08 06:56:00,
2013-05-08 02:00:00,50.4,46.1,29.95,SSE,150,0.0,0.0,85,0.00,,---,0.00,0.00,VWS V14.01,2013-05-08 07:00:00,
2013-05-08 02:01:00,50.3,46.0,29.95,SSE,150,0.0,0.0,85,0.00,,---,0.00,0.00,VWS V14.01,2013-05-08 07:01:00,
2013-05-08 02:06:00,50.3,46.0,29.94,SSE,150,0.0,0.0,85,0.00,,---,0.00,0.00,VWS V14.01,2013-05-08 07:06:00,
2013-05-08 02:11:00,50.1,45.8,29.94,SSE,150,0.0,0.0,85,0.00,,---,0.00,0.00,VWS V14.01,2013-05-08 07:11:00,
2013-05-08 02:16:00,50.0,46.9,29.94,SSE,150,0.0,0.0,89,0.00,,---,0.00,0.00,VWS V14.01,2013-05-08 07:16:00,
2013-05-08 02:21:00,49.9,45.9,29.94,SSE,150,0.0,0.0,86,0.00,,---,0.00,0.00,VWS V14.01,2013-05-08 07:21:00,
2013-05-08 02:26:00,49.7,45.7,29.94,SSE,150,0.0,0.0,86,0.00,,---,0.00,0.00,VWS V14.01,2013-05-08 07:26:00,
2013-05-08 02:31:00,49.5,45.5,29.94,SSE,150,0.0,0.0,86,0.00,,---,0.00,0.00,VWS V14.01,2013-05-08 07:31:00,
2013-05-08 02:36:00,49.4,45.4,29.94,SSE,150,0.0,0.0,86,0.00,,---,0.00,0.00,VWS V14.01,2013-05-08 07:36:00,
2013-05-08 02:41:00,49.1,45.4,29.94,SSE,150,0.0,0.0,87,0.00,,---,0.00,0.00,VWS V14.01,2013-05-08 07:41:00,
2013-05-08 02:46:00,49.0,45.3,29.94,SSE,150,0.0,0.0,87,0.00,,---,0.00,0.00,VWS V14.01,2013-05-08 07:46:00,
2013-05-08 02:51:00,48.8,45.4,29.94,SSE,150,0.0,0.0,88,0.00,,---,0.00,0.00,VWS V14.01,2013-05-08 07:51:00,
2013-05-08 02:56:00,48.7,45.3,29.95,SSE,150,0.0,0.0,88,0.00,,---,0.00,0.00,VWS V14.01,2013-05-08 07:56:00,
2013-05-08 03:00:00,48.7,45.3,29.95,SSE,150,0.0,0.0,88,0.00,,---,0.00,0.00,VWS V14.01,2013-05-08 08:00:00,
2013-05-08 03:01:00,48.6,45.2,29.95,SSE,150,0.0,0.0,88,0.00,,---,0.00,0.00,VWS V14.01,2013-05-08 08:01:00,
2013-05-08 03:06:00,48.5,45.4,29.95,SSE,150,0.0,0.0,89,0.00,,---,0.00,0.00,VWS V14.01,2013-05-08 08:06:00,
2013-05-08 03:11:00,48.4,45.3,29.95,SSE,150,0.0,0.0,89,0.00,,---,0.00,0.00,VWS V14.01,2013-05-08 08:11:00,
2013-05-08 03:16:00,48.3,44.9,29.95,SSE,150,0.0,0.0,88,0.00,,---,0.00,0.00,VWS V14.01,2013-05-08 08:16:00,
2013-05-08 03:21:00,48.2,44.8,29.95,SSE,150,0.0,0.0,88,0.00,,---,0.00,0.00,VWS V14.01,2013-05-08 08:21:00,
2013-05-08 03:26:00,48.1,44.7,29.95,SSE,150,0.0,0.0,88,0.00,,---,0.00,0.00,VWS V14.01,2013-05-08 08:26:00,
2013-05-08 03:31:00,47.9,44.8,29.95,SSE,150,0.0,0.0,89,0.00,,---,0.00,0.00,VWS V14.01,2013-05-08 08:31:00,
2013-05-08 03:36:00,47.7,44.6,29.95,SSE,150,0.0,0.0,89,0.00,,---,0.00,0.00,VWS V14.01,2013-05-08 08:36:00,
2013-05-08 03:41:00,47.6,44.5,29.95,SSE,150,0.0,0.0,89,0.00,,---,0.00,0.00,VWS V14.01,2013-05-08 08:41:00,
2013-05-08 03:46:00,47.5,44.4,29.95,SSE,150,0.0,0.0,89,0.00,,---,0.00,0.00,VWS V14.01,2013-05-08 08:46:00,
2013-05-08 03:51:00,47.4,44.3,29.95,SSE,150,0.0,0.0,89,0.00,,---,0.00,0.00,VWS V14.01,2013-05-08 08:51:00,
2013-05-08 03:56:00,47.4,44.3,29.95,SSE,150,0.0,0.0,89,0.00,,---,0.00,0.00,VWS V14.01,2013-05-08 08:56:00,
2013-05-08 04:00:00,47.3,44.2,29.95,SSE,150,0.0,0.0,89,0.00,,---,0.00,0.00,VWS V14.01,2013-05-08 09:00:00,
2013-05-08 04:01:00,47.3,44.2,29.95,SSE,150,0.0,0.0,89,0.00,,---,0.00,0.00,VWS V14.01,2013-05-08 09:01:00,
2013-05-08 04:06:00,47.3,44.2,29.95,SSE,150,0.0,0.0,89,0.00,,---,0.00,0.00,VWS V14.01,2013-05-08 09:06:00,
2013-05-08 04:11:00,47.2,44.4,29.95,SSE,150,0.0,0.0,90,0.00,,---,0.00,0.00,VWS V14.01,2013-05-08 09:11:00,
2013-05-08 04:16:00,47.1,44.3,29.95,SSE,150,0.0,0.0,90,0.00,,---,0.00,0.00,VWS V14.01,2013-05-08 09:16:00,
2013-05-08 04:21:00,47.0,44.2,29.95,SSE,150,0.0,0.0,90,0.00,,---,0.00,0.00,VWS V14.01,2013-05-08 09:21:00,
2013-05-08 04:26:00,47.0,44.2,29.95,SSE,150,0.0,0.0,90,0.00,,---,0.00,0.00,VWS V14.01,2013-05-08 09:26:00,
2013-05-08 04:31:00,46.9,44.1,29.95,SSE,150,0.0,0.0,90,0.00,,---,0.00,0.00,VWS V14.01,2013-05-08 09:31:00,
2013-05-08 04:36:00,46.9,44.1,29.95,SSE,150,0.0,0.0,90,0.00,,---,0.00,0.00,VWS V14.01,2013-05-08 09:36:00,
2013-05-08 04:41:00,46.8,44.0,29.95,SSE,150,0.0,0.0,90,0.00,,---,0.00,0.00,VWS V14.01,2013-05-08 09:41:00,
2013-05-08 04:46:00,46.7,43.9,29.95,SSE,150,0.0,0.0,90,0.00,,---,0.00,0.00,VWS V14.01,2013-05-08 09:46:00,
2013-05-08 04:51:00,46.7,43.9,29.95,SSE,150,0.0,0.0,90,0.00,,---,0.00,0.00,VWS V14.01,2013-05-08 09:51:00,
2013-05-08 04:56:00,46.6,43.8,29.95,SSE,150,0.0,0.0,90,0.00,,---,0.00,0.00,VWS V14.01,2013-05-08 09:56:00,
2013-05-08 05:00:00,46.6,43.8,29.95,SSE,150,0.0,0.0,90,0.00,,---,0.00,0.00,VWS V14.01,2013-05-08 10:00:00,
2013-05-08 05:01:00,46.6,43.8,29.95,SSE,150,0.0,0.0,90,0.00,,---,0.00,0.00,VWS V14.01,2013-05-08 10:01:00,
2013-05-08 05:06:00,46.6,44.1,29.95,SSE,150,0.0,0.0,91,0.00,,---,0.00,0.00,VWS V14.01,2013-05-08 10:06:00,
2013-05-08 05:11:00,46.5,44.0,29.95,SSE,150,0.0,0.0,91,0.00,,---,0.00,0.00,VWS V14.01,2013-05-08 10:11:00,
2013-05-08 05:16:00,46.4,43.9,29.96,SSE,150,0.0,0.0,91,0.00,,---,0.00,0.00,VWS V14.01,2013-05-08 10:16:00,
2013-05-08 05:21:00,46.4,43.9,29.96,SSE,150,0.0,0.0,91,0.00,,---,0.00,0.00,VWS V14.01,2013-05-08 10:21:00,
2013-05-08 05:26:00,46.3,43.8,29.96,SSE,150,0.0,0.0,91,0.00,,---,0.00,0.00,VWS V14.01,2013-05-08 10:26:00,
2013-05-08 05:30:00,46.1,43.3,29.96,SSE,150,0.0,0.0,90,0.00,,---,0.00,0.00,VWS V14.01,2013-05-08 10:30:00,
2013-05-08 05:35:00,46.0,43.2,29.96,SSE,150,0.0,0.0,90,0.00,,---,0.00,0.00,VWS V14.01,2013-05-08 10:35:00,
2013-05-08 05:40:00,45.8,43.0,29.96,SSE,150,0.0,0.0,90,0.00,,---,0.00,0.00,VWS V14.01,2013-05-08 10:40:00,
2013-05-08 05:45:00,45.6,42.8,29.96,SSE,150,0.0,0.0,90,0.00,,---,0.00,5.00,VWS V14.01,2013-05-08 10:45:00,
2013-05-08 05:50:00,45.4,42.6,29.97,SSE,150,0.0,0.0,90,0.00,,---,0.00,7.00,VWS V14.01,2013-05-08 10:50:00,
2013-05-08 05:55:00,45.3,42.5,29.97,SSE,150,0.0,0.0,90,0.00,,---,0.00,9.00,VWS V14.01,2013-05-08 10:55:00,
2013-05-08 06:00:00,45.2,42.7,29.97,SSE,150,0.0,0.0,91,0.00,,---,0.00,12.00,VWS V14.01,2013-05-08 11:00:00,
2013-05-08 06:05:00,45.2,42.7,29.97,SSE,150,0.0,0.0,91,0.00,,---,0.00,14.00,VWS V14.01,2013-05-08 11:05:00,
2013-05-08 06:10:00,45.2,42.7,29.97,SSE,150,0.0,0.0,91,0.00,,---,0.00,18.00,VWS V14.01,2013-05-08 11:10:00,
2013-05-08 06:15:00,45.1,42.6,29.97,SSE,150,0.0,0.0,91,0.00,,---,0.00,21.00,VWS V14.01,2013-05-08 11:15:00,
2013-05-08 06:20:00,45.1,42.9,29.97,SSE,150,0.0,0.0,92,0.00,,---,0.00,30.00,VWS V14.01,2013-05-08 11:20:00,
2013-05-08 06:25:00,45.0,42.8,29.97,SSE,150,0.0,0.0,92,0.00,,---,0.00,40.00,VWS V14.01,2013-05-08 11:25:00,
2013-05-08 06:30:00,45.2,43.3,29.97,SSE,150,0.0,0.0,93,0.00,,---,0.00,53.00,VWS V14.01,2013-05-08 11:30:00,
2013-05-08 06:35:00,45.5,43.6,29.97,SSE,150,0.0,0.0,93,0.00,,---,0.00,65.00,VWS V14.01,2013-05-08 11:35:00,
2013-05-08 06:40:00,45.8,44.2,29.97,SSE,150,0.0,0.0,94,0.00,,---,0.00,77.00,VWS V14.01,2013-05-08 11:40:00,
2013-05-08 06:45:00,46.2,44.6,29.98,SSE,150,0.0,0.0,94,0.00,,---,0.00,91.00,VWS V14.01,2013-05-08 11:45:00,
2013-05-08 06:50:00,46.5,44.9,29.98,SSE,150,0.0,0.0,94,0.00,,---,0.00,104.00,VWS V14.01,2013-05-08 11:50:00,
2013-05-08 06:55:00,46.7,45.1,29.98,SSE,150,0.0,0.0,94,0.00,,---,0.00,118.00,VWS V14.01,2013-05-08 11:55:00,
2013-05-08 07:00:00,46.9,45.3,29.98,SSE,150,0.0,0.0,94,0.00,,---,0.00,91.00,VWS V14.01,2013-05-08 12:00:00,
2013-05-08 07:05:00,47.2,45.6,29.98,SSE,150,0.0,0.0,94,0.00,,---,0.00,90.00,VWS V14.01,2013-05-08 12:05:00,
2013-05-08 07:10:00,47.7,46.1,29.98,SSE,150,0.0,0.0,94,0.00,,---,0.00,93.00,VWS V14.01,2013-05-08 12:10:00,
2013-05-08 07:15:00,48.2,46.6,29.98,SSE,150,0.0,0.0,94,0.00,,---,0.00,105.00,VWS V14.01,2013-05-08 12:15:00,
2013-05-08 07:20:00,48.5,46.9,29.98,SSE,150,0.0,0.0,94,0.00,,---,0.00,107.00,VWS V14.01,2013-05-08 12:20:00,
2013-05-08 07:25:00,48.9,47.2,29.98,SSE,150,0.0,0.0,94,0.00,,---,0.00,169.00,VWS V14.01,2013-05-08 12:25:00,
2013-05-08 07:30:00,49.4,47.8,29.98,SSE,150,0.0,0.0,94,0.00,,---,0.00,204.00,VWS V14.01,2013-05-08 12:30:00,
2013-05-08 07:35:00,50.0,48.1,29.98,SSE,150,0.0,0.0,93,0.00,,---,0.00,176.00,VWS V14.01,2013-05-08 12:35:00,
2013-05-08 07:40:00,50.5,48.6,29.99,SSE,150,0.0,0.0,93,0.00,,---,0.00,171.00,VWS V14.01,2013-05-08 12:40:00,
2013-05-08 07:45:00,51.2,49.0,29.99,SSE,150,0.0,0.0,92,0.00,,---,0.00,267.00,VWS V14.01,2013-05-08 12:45:00,
2013-05-08 07:50:00,51.8,49.3,29.99,SSE,150,0.0,0.0,91,0.00,,---,0.00,294.00,VWS V14.01,2013-05-08 12:50:00,
2013-05-08 07:55:00,52.6,49.8,29.99,SSE,150,0.0,0.0,90,0.00,,---,0.00,311.00,VWS V14.01,2013-05-08 12:55:00,
2013-05-08 08:00:00,53.5,50.3,29.99,SSE,150,0.0,0.0,89,0.00,,---,0.00,330.00,VWS V14.01,2013-05-08 13:00:00,
2013-05-08 08:05:00,54.5,51.0,29.99,SSE,150,0.0,0.0,88,0.00,,---,0.00,346.00,VWS V14.01,2013-05-08 13:05:00,
2013-05-08 08:10:00,55.8,51.0,29.99,SSE,150,0.0,0.0,84,0.00,,---,0.00,364.00,VWS V14.01,2013-05-08 13:10:00,
2013-05-08 08:15:00,57.0,51.2,29.99,SSE,150,0.0,0.0,81,0.00,,---,0.00,383.00,VWS V14.01,2013-05-08 13:15:00,
2013-05-08 08:20:00,58.5,52.4,29.99,SSE,150,0.0,0.0,80,0.00,,---,0.00,397.00,VWS V14.01,2013-05-08 13:20:00,
2013-05-08 08:25:00,59.3,52.1,29.98,SSE,150,0.0,0.0,77,0.00,,---,0.00,415.00,VWS V14.01,2013-05-08 13:25:00,
2013-05-08 08:30:00,60.0,51.3,29.98,SSE,150,0.0,1.0,73,0.00,,---,0.00,432.00,VWS V14.01,2013-05-08 13:30:00,
2013-05-08 08:35:00,61.1,52.8,29.98,SSE,150,0.0,1.0,74,0.00,,---,0.00,450.00,VWS V14.01,2013-05-08 13:35:00,
2013-05-08 08:40:00,62.0,51.7,29.98,SSE,150,0.0,1.0,69,0.00,,---,0.00,468.00,VWS V14.01,2013-05-08 13:40:00,
2013-05-08 08:45:00,62.9,53.0,29.98,SSE,150,0.0,1.0,70,0.00,,---,0.00,483.00,VWS V14.01,2013-05-08 13:45:00,
2013-05-08 08:50:00,63.7,52.1,29.98,SSE,150,0.0,1.0,66,0.00,,---,0.00,496.00,VWS V14.01,2013-05-08 13:50:00,
2013-05-08 08:55:00,64.6,52.2,29.98,SSE,150,0.0,1.0,64,0.00,,---,0.00,515.00,VWS V14.01,2013-05-08 13:55:00,
2013-05-08 09:00:00,66.2,52.4,29.98,SSE,150,0.0,0.0,61,0.00,,---,0.00,529.00,VWS V14.01,2013-05-08 14:00:00,
2013-05-08 09:05:00,67.2,51.9,29.98,SSE,150,0.0,1.0,58,0.00,,---,0.00,545.00,VWS V14.01,2013-05-08 14:05:00,
2013-05-08 09:10:00,67.8,53.0,29.98,SSE,150,1.0,1.0,59,0.00,,---,0.00,563.00,VWS V14.01,2013-05-08 14:10:00,
2013-05-08 09:15:00,68.5,53.6,29.98,SSE,150,1.0,2.0,59,0.00,,---,0.00,580.00,VWS V14.01,2013-05-08 14:15:00,
2013-05-08 09:20:00,68.4,52.1,29.98,SSE,150,0.0,2.0,56,0.00,,---,0.00,591.00,VWS V14.01,2013-05-08 14:20:00,
2013-05-08 09:25:00,69.8,52.4,29.98,SSE,150,0.0,2.0,54,0.00,,---,0.00,606.00,VWS V14.01,2013-05-08 14:25:00,
2013-05-08 09:30:00,69.9,54.0,29.98,SSE,150,0.0,2.0,57,0.00,,---,0.00,621.00,VWS V14.01,2013-05-08 14:30:00,
2013-05-08 09:35:00,70.6,52.1,29.97,SSE,150,0.0,2.0,52,0.00,,---,0.00,633.00,VWS V14.01,2013-05-08 14:35:00,
2013-05-08 09:40:00,71.6,53.1,29.97,SSE,150,1.0,2.0,52,0.00,,---,0.00,643.00,VWS V14.01,2013-05-08 14:40:00,
2013-05-08 09:45:00,72.1,52.5,29.97,South,187,0.0,2.0,50,0.00,,---,0.00,663.00,VWS V14.01,2013-05-08 14:45:00,
2013-05-08 09:50:00,72.3,54.2,29.97,South,187,1.0,2.0,53,0.00,,---,0.00,677.00,VWS V14.01,2013-05-08 14:50:00,
2013-05-08 09:55:00,72.0,51.8,29.97,South,187,1.0,2.0,49,0.00,,---,0.00,693.00,VWS V14.01,2013-05-08 14:55:00,
2013-05-08 10:00:00,72.4,51.6,29.97,South,187,1.0,2.0,48,0.00,,---,0.00,701.00,VWS V14.01,2013-05-08 15:00:00,
2013-05-08 10:05:00,73.7,52.2,29.97,SSW,198,0.0,3.0,47,0.00,,---,0.00,715.00,VWS V14.01,2013-05-08 15:05:00,
2013-05-08 10:10:00,75.1,52.3,29.97,South,170,0.0,3.0,45,0.00,,---,0.00,728.00,VWS V14.01,2013-05-08 15:10:00,
2013-05-08 10:15:00,75.2,52.4,29.97,South,170,0.0,3.0,45,0.00,,---,0.00,738.00,VWS V14.01,2013-05-08 15:15:00,
2013-05-08 10:20:00,74.6,53.1,29.97,South,170,1.0,3.0,47,0.00,,---,0.00,754.00,VWS V14.01,2013-05-08 15:20:00,
2013-05-08 10:25:00,74.8,52.7,29.97,South,175,0.0,3.0,46,0.00,,---,0.00,766.00,VWS V14.01,2013-05-08 15:25:00,
2013-05-08 10:30:00,74.8,50.8,29.97,South,187,1.0,3.0,43,0.00,,---,0.00,773.00,VWS V14.01,2013-05-08 15:30:00,
2013-05-08 10:35:00,75.0,50.4,29.97,South,187,0.0,3.0,42,0.00,,---,0.00,786.00,VWS V14.01,2013-05-08 15:35:00,
2013-05-08 10:40:00,75.9,51.2,29.97,South,187,2.0,3.0,42,0.00,,---,0.00,800.00,VWS V14.01,2013-05-08 15:40:00,
2013-05-08 10:45:00,75.9,50.5,29.97,South,187,2.0,3.0,41,0.00,,---,0.00,809.00,VWS V14.01,2013-05-08 15:45:00,
2013-05-08 10:50:00,76.2,52.1,29.97,SSW,194,2.0,3.0,43,0.00,,---,0.00,823.00,VWS V14.01,2013-05-08 15:50:00,
2013-05-08 10:55:00,77.7,49.4,29.97,SSW,194,1.0,3.0,37,0.00,,---,0.00,840.00,VWS V14.01,2013-05-08 15:55:00,
2013-05-08 11:00:00,77.5,44.5,29.97,SSW,194,1.0,1.0,31,0.00,,---,0.00,854.00,VWS V14.01,2013-05-08 16:00:00,
2013-05-08 11:05:00,78.8,45.6,29.97,SE,146,0.0,2.0,31,0.00,,---,0.00,868.00,VWS V14.01,2013-05-08 16:05:00,
2013-05-08 11:10:00,79.3,45.2,29.97,SE,145,0.0,3.0,30,0.00,,---,0.00,882.00,VWS V14.01,2013-05-08 16:10:00,
2013-05-08 11:15:00,79.0,43.2,29.97,SW,235,3.0,4.0,28,0.00,,---,0.00,896.00,VWS V14.01,2013-05-08 16:15:00,
2013-05-08 11:20:00,78.3,43.5,29.97,SW,235,1.0,4.0,29,0.00,,---,0.00,919.00,VWS V14.01,2013-05-08 16:20:00,
2013-05-08 11:25:00,77.9,47.3,29.97,WSW,252,3.0,4.0,34,0.00,,---,0.00,958.00,VWS V14.01,2013-05-08 16:25:00,
2013-05-08 11:30:00,79.5,45.4,29.97,WSW,252,3.0,4.0,30,0.00,,---,0.00,986.00,VWS V14.01,2013-05-08 16:30:00,
2013-05-08 11:35:00,78.7,43.8,29.97,North,5,1.0,5.0,29,0.00,,---,0.00,1005.00,VWS V14.01,2013-05-08 16:35:00,
2013-05-08 11:40:00,78.9,41.1,29.97,NW,323,0.0,5.0,26,0.00,,---,0.00,223.00,VWS V14.01,2013-05-08 16:40:00,
2013-05-08 11:45:00,79.0,44.1,29.96,East,88,3.0,5.0,29,0.00,,---,0.00,232.00,VWS V14.01,2013-05-08 16:45:00,
2013-05-08 11:50:00,78.9,44.9,29.96,East,90,2.0,5.0,30,0.00,,---,0.00,227.00,VWS V14.01,2013-05-08 16:50:00,
2013-05-08 11:55:00,78.5,43.6,29.96,East,82,1.0,5.0,29,0.00,,---,0.00,220.00,VWS V14.01,2013-05-08 16:55:00,
2013-05-08 12:00:00,77.8,44.8,29.96,East,82,0.0,0.0,31,0.00,,---,0.00,234.00,VWS V14.01,2013-05-08 17:00:00,
2013-05-08 12:05:00,77.3,42.6,29.96,ESE,107,0.0,3.0,29,0.00,,---,0.00,292.00,VWS V14.01,2013-05-08 17:05:00,
2013-05-08 12:10:00,77.0,44.1,29.96,ESE,107,0.0,3.0,31,0.00,,---,0.00,202.00,VWS V14.01,2013-05-08 17:10:00,
2013-05-08 12:15:00,77.4,43.6,29.96,ESE,107,0.0,3.0,30,0.00,,---,0.00,204.00,VWS V14.01,2013-05-08 17:15:00,
2013-05-08 12:20:00,77.6,42.9,29.96,ESE,107,2.0,3.0,29,0.00,,---,0.00,225.00,VWS V14.01,2013-05-08 17:20:00,
2013-05-08 12:25:00,77.9,44.0,29.96,ESE,107,1.0,3.0,30,0.00,,---,0.00,299.00,VWS V14.01,2013-05-08 17:25:00,
2013-05-08 12:30:00,78.0,44.1,29.96,ENE,62,1.0,7.0,30,0.00,,---,0.00,272.00,VWS V14.01,2013-05-08 17:30:00,
2013-05-08 12:35:00,77.9,43.1,29.96,ENE,63,0.0,7.0,29,0.00,,---,0.00,292.00,VWS V14.01,2013-05-08 17:35:00,
2013-05-08 12:40:00,76.7,43.8,29.95,ENE,63,0.0,7.0,31,0.00,,---,0.00,315.00,VWS V14.01,2013-05-08 17:40:00,
2013-05-08 12:45:00,77.3,47.5,29.95,ENE,63,1.0,7.0,35,0.00,,---,0.00,364.00,VWS V14.01,2013-05-08 17:45:00,
2013-05-08 12:50:00,77.5,43.7,29.95,SW,230,4.0,7.0,30,0.00,,---,0.00,1111.00,VWS V14.01,2013-05-08 17:50:00,
2013-05-08 12:55:00,78.4,47.7,29.95,WSW,237,2.0,7.0,34,0.00,,---,0.00,1063.00,VWS V14.01,2013-05-08 17:55:00,
2013-05-08 13:00:00,79.0,42.2,29.95,West,261,2.0,3.0,27,0.00,,---,0.00,1049.00,VWS V14.01,2013-05-08 18:00:00,
2013-05-08 13:05:00,78.6,42.8,29.94,ENE,71,3.0,3.0,28,0.00,,---,0.00,1011.00,VWS V14.01,2013-05-08 18:05:00,
2013-05-08 13:10:00,82.5,45.2,29.94,SSE,157,1.0,3.0,27,0.00,,---,0.00,1018.00,VWS V14.01,2013-05-08 18:10:00,
2013-05-08 13:15:00,81.4,48.7,29.94,SSW,205,3.0,5.0,32,0.00,,---,0.00,1037.00,VWS V14.01,2013-05-08 18:15:00,
2013-05-08 13:20:00,79.8,46.5,29.94,SSW,196,3.0,6.0,31,0.00,,---,0.00,1018.00,VWS V14.01,2013-05-08 18:20:00,
2013-05-08 13:25:00,80.7,43.7,29.94,SE,137,1.0,6.0,27,0.00,,---,0.00,1023.00,VWS V14.01,2013-05-08 18:25:00,
2013-05-08 13:30:00,81.4,44.2,29.94,SSE,152,1.0,6.0,27,0.00,,---,0.00,1020.00,VWS V14.01,2013-05-08 18:30:00,
2013-05-08 13:35:00,81.6,42.4,29.93,ENE,61,1.0,6.0,25,0.00,,---,0.00,990.00,VWS V14.01,2013-05-08 18:35:00,
2013-05-08 13:40:00,81.0,45.8,29.93,SSE,166,0.0,6.0,29,0.00,,---,0.00,963.00,VWS V14.01,2013-05-08 18:40:00,
2013-05-08 13:45:00,81.0,41.9,29.93,SSE,166,1.0,6.0,25,0.00,,---,0.00,178.00,VWS V14.01,2013-05-08 18:45:00,
2013-05-08 13:50:00,79.0,49.0,29.93,South,170,2.0,6.0,35,0.00,,---,0.00,179.00,VWS V14.01,2013-05-08 18:50:00,
2013-05-08 13:55:00,78.3,45.2,29.93,South,170,0.0,6.0,31,0.00,,---,0.00,171.00,VWS V14.01,2013-05-08 18:55:00,
2013-05-08 14:00:00,78.9,43.1,29.93,SE,146,1.0,4.0,28,0.00,,---,0.00,195.00,VWS V14.01,2013-05-08 19:00:00,
2013-05-08 14:05:00,77.9,48.1,29.93,SSE,153,0.0,4.0,35,0.00,,---,0.00,213.00,VWS V14.01,2013-05-08 19:05:00,
2013-05-08 14:10:00,77.2,43.4,29.93,SSE,153,0.0,4.0,30,0.00,,---,0.00,262.00,VWS V14.01,2013-05-08 19:10:00,
2013-05-08 14:15:00,79.1,43.2,29.93,SSE,153,0.0,4.0,28,0.00,,---,0.00,884.00,VWS V14.01,2013-05-08 19:15:00,
2013-05-08 14:20:00,79.5,42.6,29.93,SSE,152,0.0,4.0,27,0.00,,---,0.00,229.00,VWS V14.01,2013-05-08 19:20:00,
2013-05-08 14:25:00,78.7,41.9,29.93,SSE,152,2.0,4.0,27,0.00,,---,0.00,223.00,VWS V14.01,2013-05-08 19:25:00,
2013-05-08 14:30:00,78.4,42.6,29.93,SSE,152,3.0,4.0,28,0.00,,---,0.00,334.00,VWS V14.01,2013-05-08 19:30:00,
2013-05-08 14:35:00,80.0,44.9,29.93,SE,135,0.0,4.0,29,0.00,,---,0.00,983.00,VWS V14.01,2013-05-08 19:35:00,
2013-05-08 14:40:00,80.9,43.8,29.92,SSW,197,3.0,4.0,27,0.00,,---,0.00,909.00,VWS V14.01,2013-05-08 19:40:00,
2013-05-08 14:45:00,79.9,43.9,29.93,SSE,156,3.0,5.0,28,0.00,,---,0.00,267.00,VWS V14.01,2013-05-08 19:45:00,
2013-05-08 14:50:00,80.0,43.0,29.93,SSE,155,0.0,5.0,27,0.00,,---,0.00,279.00,VWS V14.01,2013-05-08 19:50:00,
2013-05-08 14:55:00,79.9,43.9,29.92,SSE,155,0.0,5.0,28,0.00,,---,0.00,241.00,VWS V14.01,2013-05-08 19:55:00,
2013-05-08 15:00:00,79.2,44.2,29.92,SSE,155,1.0,2.0,29,0.00,,---,0.00,264.00,VWS V14.01,2013-05-08 20:00:00,
2013-05-08 15:05:00,77.8,46.4,29.92,South,171,1.0,3.0,33,0.00,,---,0.00,311.00,VWS V14.01,2013-05-08 20:05:00,
2013-05-08 15:10:00,78.1,49.7,29.92,SW,227,4.0,4.0,37,0.00,,---,0.00,819.00,VWS V14.01,2013-05-08 20:10:00,
2013-05-08 15:15:00,78.8,44.8,29.92,SSW,205,2.0,5.0,30,0.00,,---,0.00,844.00,VWS V14.01,2013-05-08 20:15:00,
2013-05-08 15:20:00,79.1,47.6,29.92,SSW,201,4.0,6.0,33,0.00,,---,0.00,501.00,VWS V14.01,2013-05-08 20:20:00,
2013-05-08 15:25:00,79.9,49.8,29.92,SW,225,1.0,6.0,35,0.00,,---,0.00,724.00,VWS V14.01,2013-05-08 20:25:00,
2013-05-08 15:30:00,79.2,46.8,29.91,SW,235,5.0,8.0,32,0.00,,---,0.00,686.00,VWS V14.01,2013-05-08 20:30:00,
2013-05-08 15:35:00,79.7,42.8,29.91,WSW,244,1.0,8.0,27,0.00,,---,0.00,680.00,VWS V14.01,2013-05-08 20:35:00,
2013-05-08 15:40:00,79.8,42.9,29.91,WSW,247,1.0,8.0,27,0.00,,---,0.00,666.00,VWS V14.01,2013-05-08 20:40:00,
2013-05-08 15:45:00,80.4,42.4,29.91,WSW,256,3.0,8.0,26,0.00,,---,0.00,557.00,VWS V14.01,2013-05-08 20:45:00,
2013-05-08 15:50:00,80.1,46.8,29.91,SW,221,2.0,8.0,31,0.00,,---,0.00,547.00,VWS V14.01,2013-05-08 20:50:00,
2013-05-08 15:55:00,79.4,46.2,29.91,SSW,213,2.0,8.0,31,0.00,,---,0.00,568.00,VWS V14.01,2013-05-08 20:55:00,
2013-05-08 16:00:00,78.9,46.6,29.91,SSW,213,4.0,6.0,32,0.00,,---,0.00,438.00,VWS V14.01,2013-05-08 21:00:00,
2013-05-08 16:05:00,78.0,48.9,29.91,SSW,210,2.0,6.0,36,0.00,,---,0.00,332.00,VWS V14.01,2013-05-08 21:05:00,
2013-05-08 16:10:00,78.3,46.9,29.91,SSW,210,1.0,6.0,33,0.00,,---,0.00,719.00,VWS V14.01,2013-05-08 21:10:00,
2013-05-08 16:15:00,79.6,43.7,29.91,South,183,1.0,6.0,28,0.00,,---,0.00,480.00,VWS V14.01,2013-05-08 21:15:00,
2013-05-08 16:20:00,79.4,44.4,29.90,SW,221,0.0,6.0,29,0.00,,---,0.00,397.00,VWS V14.01,2013-05-08 21:20:00,
2013-05-08 16:25:00,79.4,43.5,29.90,South,190,2.0,6.0,28,0.00,,---,0.00,756.00,VWS V14.01,2013-05-08 21:25:00,
2013-05-08 16:30:00,80.3,46.9,29.90,South,180,1.0,6.0,31,0.00,,---,0.00,698.00,VWS V14.01,2013-05-08 21:30:00,
2013-05-08 16:35:00,80.0,46.7,29.90,South,173,3.0,7.0,31,0.00,,---,0.00,346.00,VWS V14.01,2013-05-08 21:35:00,
2013-05-08 16:40:00,78.7,45.6,29.90,SW,216,4.0,7.0,31,0.00,,---,0.00,299.00,VWS V14.01,2013-05-08 21:40:00,
2013-05-08 16:45:00,77.8,44.8,29.90,SW,216,2.0,7.0,31,0.00,,---,0.00,318.00,VWS V14.01,2013-05-08 21:45:00,
2013-05-08 16:50:00,77.7,48.7,29.90,SW,225,1.0,7.0,36,0.00,,---,0.00,267.00,VWS V14.01,2013-05-08 21:50:00,
2013-05-08 16:55:00,77.6,46.2,29.90,SSW,210,3.0,7.0,33,0.00,,---,0.00,265.00,VWS V14.01,2013-05-08 21:55:00,
2013-05-08 17:00:00,77.3,46.8,29.90,SSW,213,4.0,4.0,34,0.00,,---,0.00,271.00,VWS V14.01,2013-05-08 22:00:00,
2013-05-08 17:05:00,77.1,49.6,29.90,SW,215,2.0,4.0,38,0.00,,---,0.00,334.00,VWS V14.01,2013-05-08 22:05:00,
2013-05-08 17:10:00,77.5,47.7,29.90,SW,215,1.0,4.0,35,0.00,,---,0.00,272.00,VWS V14.01,2013-05-08 22:10:00,
2013-05-08 17:15:00,77.5,47.7,29.90,SW,215,1.0,4.0,35,0.00,,---,0.00,274.00,VWS V14.01,2013-05-08 22:15:00,
2013-05-08 17:20:00,77.5,47.7,29.90,SW,215,2.0,4.0,35,0.00,,---,0.00,547.00,VWS V14.01,2013-05-08 22:20:00,
2013-05-08 17:25:00,77.8,44.8,29.90,WSW,238,3.0,5.0,31,0.00,,---,0.00,297.00,VWS V14.01,2013-05-08 22:25:00,
2013-05-08 17:30:00,78.3,44.3,29.90,WSW,238,2.0,5.0,30,0.00,,---,0.00,221.00,VWS V14.01,2013-05-08 22:30:00,
2013-05-08 17:35:00,77.7,48.7,29.90,SSW,211,1.0,5.0,36,0.00,,---,0.00,206.00,VWS V14.01,2013-05-08 22:35:00,
2013-05-08 17:40:00,77.9,48.1,29.90,SSW,211,1.0,5.0,35,0.00,,---,0.00,165.00,VWS V14.01,2013-05-08 22:40:00,
2013-05-08 17:45:00,77.5,50.6,29.90,SSW,211,0.0,5.0,39,0.00,,---,0.00,134.00,VWS V14.01,2013-05-08 22:45:00,
2013-05-08 17:50:00,77.2,48.9,29.90,SSW,211,0.0,5.0,37,0.00,,---,0.00,130.00,VWS V14.01,2013-05-08 22:50:00,
2013-05-08 17:55:00,77.1,45.8,29.90,SSW,211,2.0,5.0,33,0.00,,---,0.00,114.00,VWS V14.01,2013-05-08 22:55:00,
2013-05-08 18:00:00,76.6,51.8,29.90,SSW,211,1.0,2.0,42,0.00,,---,0.00,104.00,VWS V14.01,2013-05-08 23:00:00,
2013-05-08 18:05:00,76.1,50.0,29.90,SSW,211,0.0,2.0,40,0.00,,---,0.00,91.00,VWS V14.01,2013-05-08 23:05:00,
2013-05-08 18:10:00,76.3,47.4,29.89,SSW,211,0.0,2.0,36,0.00,,---,0.00,83.00,VWS V14.01,2013-05-08 23:10:00,
2013-05-08 18:15:00,76.5,50.4,29.89,SSW,211,0.0,2.0,40,0.00,,---,0.00,77.00,VWS V14.01,2013-05-08 23:15:00,
2013-05-08 18:20:00,76.6,49.1,29.90,SSW,211,0.0,2.0,38,0.00,,---,0.00,76.00,VWS V14.01,2013-05-08 23:20:00,
2013-05-08 18:25:00,76.4,48.9,29.89,SSW,211,0.0,2.0,38,0.00,,---,0.00,72.00,VWS V14.01,2013-05-08 23:25:00,
2013-05-08 18:30:00,76.4,48.2,29.89,SSW,211,0.0,2.0,37,0.00,,---,0.00,69.00,VWS V14.01,2013-05-08 23:30:00,
2013-05-08 18:35:00,76.4,47.5,29.90,SSW,211,0.0,2.0,36,0.00,,---,0.00,70.00,VWS V14.01,2013-05-08 23:35:00,
2013-05-08 18:40:00,76.5,47.6,29.90,SSW,211,0.0,2.0,36,0.00,,---,0.00,70.00,VWS V14.01,2013-05-08 23:40:00,
2013-05-08 18:45:00,76.4,47.5,29.90,SSW,211,0.0,2.0,36,0.00,,---,0.00,67.00,VWS V14.01,2013-05-08 23:45:00,
2013-05-08 18:50:00,76.2,47.3,29.90,SSW,211,0.0,2.0,36,0.00,,---,0.00,62.00,VWS V14.01,2013-05-08 23:50:00,
2013-05-08 18:55:00,76.3,46.7,29.90,SSW,211,0.0,2.0,35,0.00,,---,0.00,60.00,VWS V14.01,2013-05-08 23:55:00,
2013-05-08 19:00:00,76.2,47.3,29.90,SSW,211,0.0,0.0,36,0.00,,---,0.00,56.00,VWS V14.01,2013-05-09 00:00:00,
2013-05-08 19:05:00,76.2,47.3,29.90,SSW,211,0.0,0.0,36,0.00,,---,0.00,54.00,VWS V14.01,2013-05-09 00:05:00,
2013-05-08 19:10:00,76.1,47.2,29.90,SSW,211,0.0,0.0,36,0.00,,---,0.00,51.00,VWS V14.01,2013-05-09 00:10:00,
2013-05-08 19:15:00,76.1,48.0,29.90,SSW,211,0.0,0.0,37,0.00,,---,0.00,47.00,VWS V14.01,2013-05-09 00:15:00,
2013-05-08 19:20:00,76.0,49.3,29.90,SSW,211,0.0,0.0,39,0.00,,---,0.00,44.00,VWS V14.01,2013-05-09 00:20:00,
2013-05-08 19:25:00,75.8,50.5,29.89,SSW,211,0.0,0.0,41,0.00,,---,0.00,40.00,VWS V14.01,2013-05-09 00:25:00,
2013-05-08 19:30:00,75.5,50.8,29.89,SSW,211,0.0,0.0,42,0.00,,---,0.00,37.00,VWS V14.01,2013-05-09 00:30:00,
2013-05-08 19:35:00,75.1,50.5,29.89,SSW,211,0.0,0.0,42,0.00,,---,0.00,28.00,VWS V14.01,2013-05-09 00:35:00,
2013-05-08 19:40:00,74.7,50.1,29.90,SSW,211,0.0,0.0,42,0.00,,---,0.00,16.00,VWS V14.01,2013-05-09 00:40:00,
2013-05-08 19:45:00,74.4,49.8,29.90,SSW,211,0.0,0.0,42,0.00,,---,0.00,12.00,VWS V14.01,2013-05-09 00:45:00,
2013-05-08 19:50:00,74.0,48.8,29.90,SSW,211,0.0,0.0,41,0.00,,---,0.00,11.00,VWS V14.01,2013-05-09 00:50:00,
2013-05-08 19:55:00,73.5,49.0,29.90,SSW,211,0.0,0.0,42,0.00,,---,0.00,7.00,VWS V14.01,2013-05-09 00:55:00,
2013-05-08 20:00:00,73.1,52.3,29.90,SSW,211,0.0,0.0,48,0.00,,---,0.00,5.00,VWS V14.01,2013-05-09 01:00:00,
2013-05-08 20:05:00,72.6,51.8,29.90,SSW,211,0.0,0.0,48,0.00,,---,0.00,0.00,VWS V14.01,2013-05-09 01:05:00,
2013-05-08 20:10:00,72.2,54.7,29.90,SSW,211,0.0,0.0,54,0.00,,---,0.00,0.00,VWS V14.01,2013-05-09 01:10:00,
2013-05-08 20:15:00,71.6,52.5,29.90,SSW,211,0.0,0.0,51,0.00,,---,0.00,0.00,VWS V14.01,2013-05-09 01:15:00,
2013-05-08 20:20:00,70.8,53.3,29.90,SSW,211,0.0,1.0,54,0.00,,---,0.00,0.00,VWS V14.01,2013-05-09 01:20:00,
2013-05-08 20:25:00,70.3,53.9,29.90,SSW,211,0.0,1.0,56,0.00,,---,0.00,0.00,VWS V14.01,2013-05-09 01:25:00,
2013-05-08 20:30:00,69.6,55.1,29.90,SSW,211,0.0,1.0,60,0.00,,---,0.00,0.00,VWS V14.01,2013-05-09 01:30:00,
2013-05-08 20:35:00,69.1,55.5,29.90,SSW,211,0.0,1.0,62,0.00,,---,0.00,0.00,VWS V14.01,2013-05-09 01:35:00,
2013-05-08 20:40:00,68.6,56.0,29.90,SSW,211,0.0,1.0,64,0.00,,---,0.00,0.00,VWS V14.01,2013-05-09 01:40:00,
2013-05-08 20:45:00,68.1,55.5,29.91,SSW,211,0.0,1.0,64,0.00,,---,0.00,0.00,VWS V14.01,2013-05-09 01:45:00,
2013-05-08 20:50:00,67.5,54.9,29.91,SSW,211,0.0,1.0,64,0.00,,---,0.00,0.00,VWS V14.01,2013-05-09 01:50:00,
2013-05-08 20:55:00,67.1,53.2,29.91,SSW,211,0.0,1.0,61,0.00,,---,0.00,0.00,VWS V14.01,2013-05-09 01:55:00,
2013-05-08 21:00:00,67.0,54.0,29.91,SSW,211,0.0,0.0,63,0.00,,---,0.00,0.00,VWS V14.01,2013-05-09 02:00:00,
2013-05-08 21:05:00,66.8,53.8,29.91,SSW,211,0.0,0.0,63,0.00,,---,0.00,0.00,VWS V14.01,2013-05-09 02:05:00,
2013-05-08 21:10:00,66.4,54.3,29.91,SSW,211,0.0,0.0,65,0.00,,---,0.00,0.00,VWS V14.01,2013-05-09 02:10:00,
2013-05-08 21:15:00,66.1,54.8,29.91,SSW,211,0.0,0.0,67,0.00,,---,0.00,0.00,VWS V14.01,2013-05-09 02:15:00,
2013-05-08 21:20:00,65.8,54.5,29.91,SSW,211,0.0,0.0,67,0.00,,---,0.00,0.00,VWS V14.01,2013-05-09 02:20:00,
2013-05-08 21:25:00,65.4,54.2,29.91,SSW,211,0.0,0.0,67,0.00,,---,0.00,0.00,VWS V14.01,2013-05-09 02:25:00,
2013-05-08 21:30:00,65.3,54.5,29.91,SSW,211,0.0,0.0,68,0.00,,---,0.00,0.00,VWS V14.01,2013-05-09 02:30:00,
2013-05-08 21:35:00,65.2,54.4,29.92,SSW,211,0.0,0.0,68,0.00,,---,0.00,0.00,VWS V14.01,2013-05-09 02:35:00,
2013-05-08 21:40:00,65.0,53.8,29.91,SSW,211,0.0,0.0,67,0.00,,---,0.00,0.00,VWS V14.01,2013-05-09 02:40:00,
2013-05-08 21:45:00,64.7,53.5,29.92,SSW,211,0.0,0.0,67,0.00,,---,0.00,0.00,VWS V14.01,2013-05-09 02:45:00,
2013-05-08 21:50:00,64.4,54.0,29.92,SSW,211,0.0,0.0,69,0.00,,---,0.00,0.00,VWS V14.01,2013-05-09 02:50:00,
2013-05-08 21:55:00,64.1,54.1,29.92,SSW,211,0.0,0.0,70,0.00,,---,0.00,0.00,VWS V14.01,2013-05-09 02:55:00,
2013-05-08 22:00:00,63.8,53.8,29.92,SSW,211,0.0,0.0,70,0.00,,---,0.00,0.00,VWS V14.01,2013-05-09 03:00:00,
2013-05-08 22:05:00,63.6,54.0,29.92,SSW,211,0.0,0.0,71,0.00,,---,0.00,0.00,VWS V14.01,2013-05-09 03:05:00,
2013-05-08 22:10:00,63.3,53.8,29.92,SSW,211,0.0,0.0,71,0.00,,---,0.00,0.00,VWS V14.01,2013-05-09 03:10:00,
2013-05-08 22:15:00,62.9,53.8,29.92,SSW,211,0.0,0.0,72,0.00,,---,0.00,0.00,VWS V14.01,2013-05-09 03:15:00,
2013-05-08 22:20:00,61.8,54.2,29.92,SSW,211,0.0,0.0,76,0.00,,---,0.00,0.00,VWS V14.01,2013-05-09 03:20:00,
2013-05-08 22:25:00,61.0,54.1,29.92,SSW,211,0.0,0.0,78,0.00,,---,0.00,0.00,VWS V14.01,2013-05-09 03:25:00,
2013-05-08 22:30:00,60.9,54.0,29.92,SSW,211,0.0,0.0,78,0.00,,---,0.00,0.00,VWS V14.01,2013-05-09 03:30:00,
2013-05-08 22:35:00,61.2,53.9,29.92,SSW,211,0.0,0.0,77,0.00,,---,0.00,0.00,VWS V14.01,2013-05-09 03:35:00,
2013-05-08 22:40:00,61.2,54.3,29.92,SSW,211,0.0,0.0,78,0.00,,---,0.00,0.00,VWS V14.01,2013-05-09 03:40:00,
2013-05-08 22:45:00,61.1,54.5,29.92,SSW,211,0.0,0.0,79,0.00,,---,0.00,0.00,VWS V14.01,2013-05-09 03:45:00,
2013-05-08 22:50:00,61.0,54.5,29.92,SSW,211,0.0,0.0,79,0.00,,---,0.00,0.00,VWS V14.01,2013-05-09 03:50:00,
2013-05-08 22:55:00,60.4,54.2,29.92,SSW,211,0.0,0.0,80,0.00,,---,0.00,0.00,VWS V14.01,2013-05-09 03:55:00,
2013-05-08 23:00:00,60.5,54.0,29.92,SSW,211,0.0,0.0,79,0.00,,---,0.00,0.00,VWS V14.01,2013-05-09 04:00:00,
2013-05-08 23:01:00,60.6,54.1,29.92,SSW,211,0.0,0.0,79,0.00,,---,0.00,0.00,VWS V14.01,2013-05-09 04:01:00,
2013-05-08 23:06:00,60.9,54.3,29.91,SSW,211,0.0,0.0,79,0.00,,---,0.00,0.00,VWS V14.01,2013-05-09 04:06:00,
2013-05-08 23:11:00,60.8,54.3,29.91,SSW,211,0.0,0.0,79,0.00,,---,0.00,0.00,VWS V14.01,2013-05-09 04:11:00,
2013-05-08 23:16:00,60.8,53.9,29.91,SSW,211,0.0,0.0,78,0.00,,---,0.00,0.00,VWS V14.01,2013-05-09 04:16:00,
2013-05-08 23:21:00,60.5,54.0,29.91,SSW,211,0.0,0.0,79,0.00,,---,0.00,0.00,VWS V14.01,2013-05-09 04:21:00,
2013-05-08 23:26:00,60.0,54.5,29.92,SSW,211,0.0,1.0,82,0.00,,---,0.00,0.00,VWS V14.01,2013-05-09 04:26:00,
2013-05-08 23:31:00,59.5,54.3,29.92,SSW,211,2.0,2.0,83,0.00,,---,0.00,0.00,VWS V14.01,2013-05-09 04:31:00,
2013-05-08 23:36:00,59.0,53.8,29.92,SSW,211,1.0,3.0,83,0.00,,---,0.00,0.00,VWS V14.01,2013-05-09 04:36:00,
2013-05-08 23:41:00,59.2,53.7,29.92,SSW,211,0.0,3.0,82,0.00,,---,0.00,0.00,VWS V14.01,2013-05-09 04:41:00,
2013-05-08 23:46:00,59.3,53.5,29.92,SSW,211,0.0,3.0,81,0.00,,---,0.00,0.00,VWS V14.01,2013-05-09 04:46:00,
2013-05-08 23:51:00,59.9,53.7,29.92,SSW,211,0.0,3.0,80,0.00,,---,0.00,0.00,VWS V14.01,2013-05-09 04:51:00,
2013-05-08 23:56:00,60.3,53.8,29.91,SSW,211,0.0,3.0,79,0.00,,---,0.00,0.00,VWS V14.01,2013-05-09 04:56:00,